This is the latest recevied weather packets stored in our database for station/object KJ7HSW. If no packets are shown the sender has not sent any weather packets the latest 10 day(s).
| Time | Temp. | Humidity | Pressure | Rain* | Wind** | Luminosity | Snow |
|---|---|---|---|---|---|---|---|
| 1777970988 | 11.67° C | 86% | 1011.8 hPa | 0 mm | - | 0 W/m² | - |
| 1777970686 | 12.22° C | 85% | 1011.7 hPa | 0 mm | - | 0 W/m² | - |
| 1777970383 | 12.22° C | 83% | 1011.5 hPa | 0 mm | - | 0 W/m² | - |
| 1777970080 | 12.78° C | 83% | 1011.8 hPa | 0 mm | - | 0 W/m² | - |
| 1777969777 | 12.78° C | 82% | 1011.7 hPa | 0 mm | - | 0 W/m² | - |
| 1777969472 | 12.78° C | 81% | 1011.6 hPa | 0 mm | - | 0 W/m² | - |
| 1777969170 | 12.78° C | 81% | 1011.6 hPa | 0 mm | - | 0 W/m² | - |
| 1777968867 | 13.33° C | 81% | 1011.6 hPa | 0 mm | - | 0 W/m² | - |
| 1777968563 | 13.33° C | 80% | 1011.5 hPa | 0 mm | - | 0 W/m² | - |
| 1777968259 | 13.33° C | 80% | 1011.5 hPa | 0 mm | - | 0 W/m² | - |
| 1777967955 | 13.33° C | 81% | 1011.4 hPa | 0 mm | - | 0 W/m² | - |
| 1777967652 | 13.33° C | 80% | 1011.4 hPa | 0 mm | - | 0 W/m² | - |
| 1777967349 | 13.89° C | 79% | 1011.2 hPa | 0 mm | - | 0 W/m² | - |
| 1777967046 | 13.89° C | 79% | 1011.3 hPa | 0 mm | - | 0 W/m² | - |
| 1777966743 | 13.33° C | 82% | 1011.2 hPa | 0 mm | - | 0 W/m² | - |
| 1777966441 | 13.33° C | 82% | 1011.1 hPa | 0 mm | - | 0 W/m² | - |
| 1777966138 | 13.89° C | 81% | 1011 hPa | 0 mm | - | 0 W/m² | - |
| 1777965834 | 13.89° C | 79% | 1010.9 hPa | 0 mm | - | 0 W/m² | - |
| 1777965531 | 13.89° C | 79% | 1010.8 hPa | 0 mm | - | 0 W/m² | - |
| 1777965227 | 14.44° C | 78% | 1011 hPa | 0 mm | - | 0 W/m² | - |
| 1777964925 | 14.44° C | 78% | 1010.8 hPa | 0 mm | - | 0 W/m² | - |
| 1777964621 | 14.44° C | 77% | 1011 hPa | 0 mm | - | 0 W/m² | - |
| 1777964317 | 14.44° C | 77% | 1010.8 hPa | 0 mm | - | 0 W/m² | - |
| 1777964014 | 14.44° C | 78% | 1010.7 hPa | 0 mm | - | 0 W/m² | - |
| 1777963711 | 14.44° C | 78% | 1010.8 hPa | 0 mm | - | 0 W/m² | - |
* Rain latest hour (hover to see other rain measurements)
** Current wind speed in m/s (hover to see current wind gust speed)